ASIASTAR

Last updated on Fri Dec 19 2025 00:02:48 GMT+0000 (Coordinated Universal Time)

1 26107U 00016A 25352.65528546 -.00000317 00000+0 00000+0 0 9991 2 26107 8.7090 60.0641 0005130 209.7179 158.6439 1.00273692 94114
UTC large
Height (km)
Speed (km/s)
/
Latitude / Longitude
Inclination (degrees)
Orbital Period (minutes)
Azimuth
Elevation
Range (km)
Doppler Factor

Next 0 passes for location: London (51.5072 / 0.1276)

Sorry there are no passes over London.